Location: Drummondville
(45.8830°N, 72.4830°W)
Time: 16:00:21
(UTC-05:00)

ISS - Pass Details

Date: 12 November 2017
Orbit: 402 x 407 km, 51.6° (Epoch: 22 November)

Event Time Altitude Azimuth Distance (km) Brightness Sun altitude
Exits shadow 04:30:31 27° 41° (NE) 808 -2.0 -23.6°
Drops below altitude 10° 04:32:39 10° 76° (ENE) 1,456 0.0 -23.3°
Sets 04:34:52 0° 86° (E) 2,314 1.5 -22.9°
